[[{"header":{"parameterUnit":"m.s-1","parameterCategory":1,"la1":30.2992,"la2":30.254,"lo1":-89.0895,"lo2":-89.0443,"dy":0.0025,"dx":0.0025,"nx":19,"ny":19,"refTime":"2026-03-12T21:00:00:Z","depth":0,"parameterNumber":2,"parameterNumberName":"U-component_of_WINDS"},"data":[0,0,0,-0.648,-0.6482,-0.6565,-0.6566,-0.666,-0.666,0,0,0,0,0,0,0,0,0,0,0,-0.6443,-0.6443,-0.648,-0.6482,-0.6565,-0.6566,-0.666,-0.666,0,0,0,0,0,0,0,0,0,0,0,-0.6443,-0.6443,-0.6443,-0.6482,-0.6565,-0.6566,-0.6659,-0.6602,0,0,0,0,0,0,0,0,0,0,-0.6523,-0.6476,-0.6443,-0.6443,-0.6482,-0.6565,-0.6566,-0.6599,-0.6605,-0.6615,0,-0.6616,0,-0.6639,-0.6665,-0.6666,0,0,0,-0.6492,-0.647,-0.6504,-0.6443,-0.6483,-0.6565,-0.6531,-0.6603,-0.661,-0.6622,-0.6617,-0.6621,-0.6641,-0.6666,-0.6666,-0.6676,-0.6676,0,0,-0.6487,-0.6452,-0.6499,-0.6508,-0.6489,-0.6528,-0.6533,-0.6607,-0.6601,-0.6618,-0.6624,-0.6642,-0.6666,-0.6667,-0.6676,-0.6676,0,0,0,-0.6467,-0.6448,-0.6481,-0.6503,-0.6519,-0.653,-0.6536,-0.6598,-0.6611,-0.6625,-0.6643,-0.6667,-0.6668,-0.6677,-0.6676,-0.6618,0,0,0,-0.6465,-0.6437,-0.6478,-0.6457,-0.6517,-0.6559,-0.6524,-0.6606,-0.6615,-0.6643,-0.6667,-0.6668,-0.6677,-0.6677,-0.6621,-0.6597,0,0,0,-0.6442,-0.6434,-0.6442,-0.6455,-0.649,-0.6558,-0.6576,-0.6609,-0.6626,-0.6666,-0.6669,-0.6678,-0.6677,-0.6623,-0.6601,-0.6588,0,0,0,-0.6408,-0.6391,-0.644,-0.6429,-0.6489,-0.6521,-0.6576,-0.6603,-0.663,-0.6667,-0.6677,-0.6676,-0.6624,-0.6603,-0.659,-0.6569,-0.6558,0,0,-0.6367,-0.6385,-0.6381,-0.6428,-0.6441,-0.6511,-0.6519,-0.6579,-0.6617,-0.6655,-0.6656,-0.662,-0.6601,-0.6588,-0.6507,-0.6497,0,0,0,-0.6357,-0.6353,-0.6365,-0.6387,-0.6431,-0.6467,-0.6529,-0.6552,-0.6586,-0.6628,-0.6614,-0.6604,-0.6598,-0.659,-0.6582,-0.6579,-0.6671,-0.6671,-0.6671,-0.6248,-0.6295,-0.6292,-0.635,-0.6372,-0.6436,-0.6459,-0.6502,-0.6545,-0.6541,-0.6552,-0.6496,-0.6485,-0.6479,-0.6476,-0.6547,-0.6547,-0.6546,-0.6546,-0.6191,-0.6193,-0.6251,-0.6268,-0.632,-0.6337,-0.64,-0.643,-0.6456,-0.6492,-0.6489,-0.6523,-0.6467,-0.6467,-0.6542,-0.6543,-0.6544,-0.6544,-0.6544,-0.6123,-0.6133,-0.6159,-0.6197,-0.6222,-0.6284,-0.6305,-0.6353,-0.6399,-0.6396,-0.6413,-0.6414,-0.642,-0.6401,-0.6401,-0.64,-0.64,-0.64,-0.64,-0.6042,-0.6074,-0.6083,-0.6128,-0.615,-0.6184,-0.6251,-0.6275,-0.6314,-0.6347,-0.6348,-0.6392,-0.6453,-0.6466,-0.6397,-0.6398,-0.6398,-0.6398,-0.6399,-0.5964,-0.5989,-0.6003,-0.6024,-0.6083,-0.6105,-0.6166,-0.6211,-0.6238,-0.6248,-0.6293,-0.6331,-0.6353,-0.636,-0.6371,-0.6283,-0.6283,-0.6283,-0.6283,-0.5905,-0.5921,-0.5947,-0.5977,-0.6014,-0.607,-0.6089,-0.6142,-0.6202,-0.6223,-0.6243,-0.6263,-0.6268,-0.6288,-0.6297,-0.6308,-0.6205,-0.6205,-0.6205,-0.586,-0.5881,-0.5885,-0.594,-0.599,-0.6033,-0.6052,-0.6088,-0.6163,-0.6203,-0.624,-0.6243,-0.6276,-0.6284,-0.6322,-0.6334,-0.6356,0,0]},{"header":{"parameterUnit":"m.s-1","parameterCategory":1,"la1":30.2992,"la2":30.254,"lo1":-89.0895,"lo2":-89.0443,"dy":0.0025,"dx":0.0025,"nx":19,"ny":19,"refTime":"2026-03-12T21:00:00:Z","depth":0,"parameterNumber":3,"parameterNumberName":"V-component_of_WINDS"},"data":[0,0,0,1.71,1.7097,1.6927,1.6926,1.6716,1.6714,0,0,0,0,0,0,0,0,0,0,0,1.7155,1.7153,1.7101,1.7096,1.6927,1.6926,1.6716,1.6714,0,0,0,0,0,0,0,0,0,0,0,1.7155,1.7154,1.7152,1.7096,1.6927,1.6926,1.6717,1.6842,0,0,0,0,0,0,0,0,0,0,1.7006,1.706,1.7154,1.7152,1.7095,1.6927,1.6926,1.6848,1.6835,1.6796,0,1.6763,0,1.6735,1.6701,1.67,0,0,0,1.7093,1.7071,1.7022,1.7152,1.7093,1.6927,1.7002,1.6841,1.6825,1.6778,1.676,1.6752,1.6732,1.6699,1.6698,1.6487,1.6486,0,0,1.7103,1.7126,1.7033,1.7012,1.7039,1.7008,1.6997,1.6831,1.6812,1.6759,1.6747,1.6728,1.6698,1.6696,1.6487,1.6486,0,0,0,1.7132,1.7133,1.7087,1.7021,1.699,1.7003,1.6991,1.682,1.6803,1.6744,1.6726,1.6697,1.6694,1.6488,1.6487,1.6467,0,0,0,1.7137,1.7149,1.7092,1.7104,1.6993,1.6903,1.6983,1.6815,1.6795,1.6727,1.6697,1.6692,1.6489,1.6488,1.6469,1.6452,0,0,0,1.7164,1.7153,1.7129,1.7106,1.7033,1.6905,1.6878,1.681,1.6784,1.67,1.6692,1.649,1.6488,1.6471,1.6456,1.6402,0,0,0,1.72,1.7113,1.713,1.7026,1.7035,1.6894,1.6879,1.6773,1.6699,1.6696,1.6489,1.6487,1.6472,1.6458,1.6405,1.636,1.6344,0,0,1.7103,1.7102,1.704,1.705,1.6912,1.6918,1.6777,1.6687,1.6658,1.6546,1.654,1.6468,1.6456,1.6403,1.6251,1.6238,0,0,0,1.7017,1.6972,1.6931,1.6861,1.6791,1.673,1.6659,1.6626,1.653,1.6605,1.6435,1.6427,1.6395,1.6372,1.6362,1.6332,1.6478,1.6479,1.6479,1.6912,1.6881,1.6775,1.6724,1.6657,1.6587,1.6529,1.6473,1.646,1.6421,1.6386,1.6298,1.6273,1.6264,1.6234,1.6362,1.6362,1.6362,1.6362,1.6767,1.6698,1.6686,1.6578,1.6547,1.6457,1.6387,1.6382,1.6294,1.6321,1.6291,1.6322,1.6252,1.6224,1.636,1.6361,1.6361,1.6361,1.6361,1.6692,1.6653,1.6616,1.6513,1.6438,1.6391,1.6307,1.6282,1.6257,1.6228,1.6189,1.6189,1.6185,1.6212,1.6211,1.6211,1.6211,1.6211,1.621,1.6628,1.6587,1.6519,1.644,1.6393,1.6328,1.6259,1.6212,1.6153,1.6141,1.6141,1.6132,1.6252,1.6281,1.6205,1.6206,1.6207,1.6207,1.6208,1.6488,1.6516,1.6412,1.6365,1.627,1.6198,1.6168,1.6076,1.6034,1.5994,1.5993,1.6086,1.6082,1.6091,1.6114,1.6,1.6,1.6,1.6,1.6423,1.642,1.6308,1.6235,1.6161,1.6124,1.6008,1.5955,1.5905,1.5877,1.5891,1.5922,1.5932,1.5922,1.5934,1.5956,1.5804,1.5804,1.5804,1.6334,1.6324,1.6229,1.618,1.6105,1.6042,1.5932,1.585,1.5799,1.5795,1.5855,1.5863,1.5913,1.593,1.5924,1.5943,1.5983,0,0]}]]